This is the latest recevied weather packets stored in our database for station/object WK7G. If no packets are shown the sender has not sent any weather packets the latest 10 day(s).
| Time | Temp. | Humidity | Pressure | Rain* | Wind** | Luminosity | Snow |
|---|---|---|---|---|---|---|---|
| 1778081295 | 4.44° C | 42% | 1012.5 hPa | 0 mm | - | 504 W/m² | - |
| 1778080992 | 3.89° C | 44% | 1012.4 hPa | 0 mm | - | 488 W/m² | - |
| 1778080691 | 3.89° C | 45% | 1012.5 hPa | 0 mm | - | 452 W/m² | - |
| 1778080387 | 3.89° C | 44% | 1012.5 hPa | 0 mm | - | 434 W/m² | - |
| 1778080084 | 3.89° C | 49% | 1012.5 hPa | 0 mm | - | 422 W/m² | - |
| 1778079781 | 4.44° C | 46% | 1012.4 hPa | 0 mm | - | 395 W/m² | - |
| 1778079477 | 3.89° C | 47% | 1012.4 hPa | 0 mm | - | 374 W/m² | - |
| 1778079174 | 4.44° C | 46% | 1012.7 hPa | 0 mm | - | 370 W/m² | - |
| 1778078872 | 4.44° C | 47% | 1012.5 hPa | 0 mm | - | 348 W/m² | - |
| 1778078568 | 3.33° C | 47% | 1012.4 hPa | 0 mm | - | 329 W/m² | - |
| 1778078266 | 2.78° C | 49% | 1012.4 hPa | 0 mm | - | 320 W/m² | - |
| 1778077963 | 2.78° C | 50% | 1012.5 hPa | 0 mm | - | 287 W/m² | - |
| 1778077662 | 2.78° C | 50% | 1012.4 hPa | 0 mm | - | 270 W/m² | - |
| 1778077359 | 2.78° C | 50% | 1012.3 hPa | 0 mm | - | 248 W/m² | - |
| 1778077057 | 2.22° C | 51% | 1012.5 hPa | 0 mm | - | 246 W/m² | - |
| 1778076755 | 2.22° C | 54% | 1012.4 hPa | 0 mm | - | 234 W/m² | - |
| 1778076452 | 1.67° C | 55% | 1012.4 hPa | 0 mm | - | 218 W/m² | - |
| 1778076149 | 0.56° C | 56% | 1012.7 hPa | 0 mm | - | 199 W/m² | - |
| 1778075846 | 0.56° C | 57% | 1012.4 hPa | 0 mm | - | 184 W/m² | - |
| 1778075542 | 0.56° C | 56% | 1012.4 hPa | 0 mm | - | 163 W/m² | - |
| 1778075239 | 0.56° C | 57% | 1012.2 hPa | 0 mm | - | 136 W/m² | - |
| 1778074935 | 0.56° C | 57% | 1012.3 hPa | 0 mm | - | 130 W/m² | - |
| 1778074633 | 0° C | 59% | 1012.2 hPa | 0 mm | - | 116 W/m² | - |
| 1778074329 | -0.56° C | 59% | 1012.1 hPa | 0 mm | - | 105 W/m² | - |
| 1778074026 | -1.11° C | 60% | 1011.9 hPa | 0 mm | - | 61 W/m² | - |
* Rain latest hour (hover to see other rain measurements)
** Current wind speed in m/s (hover to see current wind gust speed)